When you browse on this site, cookies collect data to enhance your experience and personalize the content and advertising you see.
Visit our Privacy Policy to learn more. By continuing to use the site, you agree to this use of cookies and data.

Hourly Weather Gagarino

Today, 6 July, Monday

Time Temperature Precipitation Wind Pressure Humidity
00:00 +19°C° 0 mm 3 mps 740 mmHg 94%
01:00 +19°C° 0 mm 3 mps 740 mmHg 94%
02:00 +19°C° 0 mm 4 mps 740 mmHg 95%
03:00 +19°C° 0.1 mm 4 mps 739 mmHg 95%
04:00 +19°C° 0.1 mm 4 mps 739 mmHg 95%
05:00 +19°C° 0.1 mm 4 mps 739 mmHg 96%
06:00 +20°C° 0 mm 4 mps 739 mmHg 94%
07:00 +20°C° 0 mm 4 mps 739 mmHg 92%
08:00 +21°C° 0 mm 4 mps 738 mmHg 90%
09:00 +22°C° 0.5 mm 5 mps 738 mmHg 86%
10:00 +25°C° 0.5 mm 5 mps 738 mmHg 82%
11:00 +26°C° 0.5 mm 5 mps 738 mmHg 78%
12:00 +26°C° 0.9 mm 5 mps 738 mmHg 78%
13:00 +27°C° 0.9 mm 5 mps 738 mmHg 78%
14:00 +27°C° 0.9 mm 5 mps 737 mmHg 77%
15:00 +26°C° 1 mm 4 mps 737 mmHg 79%
16:00 +26°C° 1 mm 4 mps 737 mmHg 81%
17:00 +26°C° 1 mm 4 mps 737 mmHg 83%
18:00 +23°C° 0.4 mm 4 mps 737 mmHg 85%
19:00 +22°C° 0.4 mm 4 mps 737 mmHg 87%
20:00 +20°C° 0.4 mm 4 mps 737 mmHg 88%
21:00 +19°C° 0.1 mm 4 mps 737 mmHg 89%
22:00 +17°C° 0.1 mm 5 mps 738 mmHg 90%
23:00 +15°C° 0.1 mm 5 mps 738 mmHg 91%

Tomorrow, 7 July, Tuesday

Time Temperature Precipitation Wind Pressure Humidity
00:00 +15°C° 0 mm 4 mps 738 mmHg 92%
01:00 +14°C° 0 mm 3 mps 739 mmHg 93%
02:00 +14°C° 0 mm 3 mps 739 mmHg 93%
03:00 +14°C° 0 mm 2 mps 739 mmHg 93%
04:00 +14°C° 0 mm 2 mps 739 mmHg 93%
05:00 +14°C° 0 mm 2 mps 740 mmHg 93%
06:00 +14°C° 0.1 mm 2 mps 740 mmHg 91%
07:00 +15°C° 0.1 mm 2 mps 740 mmHg 89%
08:00 +16°C° 0.1 mm 3 mps 741 mmHg 87%
09:00 +16°C° 0.1 mm 3 mps 741 mmHg 82%
10:00 +17°C° 0.1 mm 3 mps 741 mmHg 78%
11:00 +18°C° 0.1 mm 4 mps 741 mmHg 74%
12:00 +18°C° 0.2 mm 4 mps 741 mmHg 72%
13:00 +18°C° 0.2 mm 4 mps 741 mmHg 70%
14:00 +17°C° 0.2 mm 5 mps 741 mmHg 68%
15:00 +18°C° 0.1 mm 4 mps 741 mmHg 69%
16:00 +18°C° 0.1 mm 4 mps 741 mmHg 70%
17:00 +18°C° 0.1 mm 4 mps 741 mmHg 71%
18:00 +17°C° 0.1 mm 4 mps 741 mmHg 75%
19:00 +14°C° 0.1 mm 4 mps 741 mmHg 79%
20:00 +13°C° 0.1 mm 3 mps 741 mmHg 83%
21:00 +12°C° 0 mm 3 mps 742 mmHg 86%
22:00 +11°C° 0 mm 3 mps 742 mmHg 89%
23:00 +10°C° 0 mm 2 mps 742 mmHg 91%

Day after tomorrow, 8 July, Wednesday

Time Temperature Precipitation Wind Pressure Humidity
00:00 +9°C° 0 mm 3 mps 742 mmHg 92%
01:00 +9°C° 0 mm 3 mps 742 mmHg 93%
02:00 +9°C° 0 mm 3 mps 742 mmHg 94%
03:00 +8°C° 0 mm 3 mps 742 mmHg 94%
04:00 +8°C° 0 mm 3 mps 742 mmHg 94%
05:00 +8°C° 0 mm 3 mps 742 mmHg 94%
06:00 +10°C° 0 mm 3 mps 742 mmHg 89%
07:00 +12°C° 0 mm 3 mps 742 mmHg 83%
08:00 +13°C° 0 mm 4 mps 742 mmHg 77%
09:00 +14°C° 0.1 mm 4 mps 742 mmHg 73%
10:00 +15°C° 0.1 mm 5 mps 742 mmHg 69%
11:00 +17°C° 0.1 mm 5 mps 742 mmHg 65%
12:00 +17°C° 0.2 mm 5 mps 742 mmHg 67%
13:00 +17°C° 0.2 mm 5 mps 742 mmHg 68%
14:00 +17°C° 0.2 mm 5 mps 742 mmHg 69%
15:00 +15°C° 0.2 mm 5 mps 742 mmHg 76%
16:00 +14°C° 0.2 mm 4 mps 742 mmHg 83%
17:00 +13°C° 0.2 mm 3 mps 742 mmHg 91%
18:00 +12°C° 0.1 mm 3 mps 742 mmHg 92%
19:00 +12°C° 0.1 mm 3 mps 742 mmHg 93%
20:00 +12°C° 0.1 mm 3 mps 742 mmHg 94%
21:00 +11°C° 0 mm 3 mps 742 mmHg 95%
22:00 +10°C° 0 mm 3 mps 742 mmHg 95%
23:00 +10°C° 0 mm 3 mps 742 mmHg 96%

9 July, Thursday

Time Temperature Precipitation Wind Pressure Humidity
00:00 +9°C° 0 mm 3 mps 743 mmHg 96%
01:00 +9°C° 0 mm 3 mps 743 mmHg 97%
02:00 +9°C° 0 mm 3 mps 743 mmHg 97%
03:00 +9°C° 0 mm 2 mps 743 mmHg 97%
04:00 +8°C° 0 mm 2 mps 743 mmHg 97%
05:00 +8°C° 0 mm 2 mps 743 mmHg 98%
06:00 +10°C° 0 mm 3 mps 744 mmHg 94%
07:00 +11°C° 0 mm 3 mps 744 mmHg 90%
08:00 +13°C° 0 mm 3 mps 744 mmHg 85%
09:00 +14°C° 0 mm 4 mps 744 mmHg 79%
10:00 +15°C° 0 mm 4 mps 745 mmHg 72%
11:00 +16°C° 0 mm 5 mps 745 mmHg 65%
12:00 +17°C° 0.1 mm 5 mps 745 mmHg 65%
13:00 +17°C° 0.1 mm 5 mps 745 mmHg 65%
14:00 +19°C° 0.1 mm 5 mps 745 mmHg 65%
15:00 +19°C° 0.1 mm 5 mps 745 mmHg 65%
16:00 +19°C° 0.1 mm 4 mps 745 mmHg 66%
17:00 +19°C° 0.1 mm 4 mps 745 mmHg 66%
18:00 +18°C° 0.1 mm 4 mps 745 mmHg 72%
19:00 +16°C° 0.1 mm 3 mps 745 mmHg 78%
20:00 +14°C° 0.1 mm 3 mps 745 mmHg 84%
21:00 +13°C° 0 mm 3 mps 746 mmHg 87%
22:00 +13°C° 0 mm 2 mps 746 mmHg 89%
23:00 +12°C° 0 mm 2 mps 746 mmHg 92%

10 July, Friday

Time Temperature Precipitation Wind Pressure Humidity
00:00 +10°C° 0 mm 2 mps 746 mmHg 92%
01:00 +10°C° 0 mm 2 mps 747 mmHg 93%
02:00 +11°C° 0 mm 1 mps 747 mmHg 93%
03:00 +11°C° 0 mm 1 mps 747 mmHg 93%
04:00 +10°C° 0 mm 1 mps 747 mmHg 93%
05:00 +10°C° 0 mm 1 mps 747 mmHg 94%
06:00 +12°C° 0 mm 1 mps 747 mmHg 89%
07:00 +14°C° 0 mm 2 mps 747 mmHg 84%
08:00 +16°C° 0 mm 2 mps 747 mmHg 80%
09:00 +17°C° 0 mm 2 mps 747 mmHg 74%
10:00 +19°C° 0 mm 3 mps 747 mmHg 68%
11:00 +20°C° 0 mm 4 mps 747 mmHg 63%
12:00 +21°C° 0.1 mm 4 mps 747 mmHg 65%
13:00 +21°C° 0.1 mm 4 mps 746 mmHg 67%
14:00 +21°C° 0.1 mm 4 mps 746 mmHg 69%
15:00 +22°C° 0.1 mm 4 mps 746 mmHg 71%
16:00 +22°C° 0.1 mm 4 mps 746 mmHg 73%
17:00 +22°C° 0.1 mm 4 mps 745 mmHg 75%
18:00 +21°C° 0.1 mm 4 mps 745 mmHg 79%
19:00 +20°C° 0.1 mm 4 mps 745 mmHg 83%
20:00 +19°C° 0.1 mm 3 mps 745 mmHg 87%
21:00 +19°C° 0 mm 4 mps 745 mmHg 87%
22:00 +18°C° 0 mm 4 mps 745 mmHg 88%
23:00 +17°C° 0 mm 5 mps 745 mmHg 89%

11 July, Saturday

Time Temperature Precipitation Wind Pressure Humidity
00:00 +17°C° 0 mm 5 mps 745 mmHg 90%
01:00 +17°C° 0 mm 5 mps 744 mmHg 90%
02:00 +17°C° 0 mm 5 mps 744 mmHg 91%
03:00 +17°C° 0 mm 6 mps 744 mmHg 91%
04:00 +17°C° 0 mm 6 mps 744 mmHg 90%
05:00 +17°C° 0 mm 6 mps 743 mmHg 89%
06:00 +17°C° 0 mm 6 mps 743 mmHg 87%
07:00 +19°C° 0 mm 6 mps 743 mmHg 85%
08:00 +20°C° 0 mm 7 mps 743 mmHg 83%
09:00 +21°C° 0.3 mm 7 mps 743 mmHg 82%
10:00 +23°C° 0.3 mm 7 mps 743 mmHg 81%
11:00 +24°C° 0.3 mm 7 mps 743 mmHg 80%
12:00 +24°C° 1.8 mm 6 mps 743 mmHg 81%
13:00 +24°C° 1.8 mm 6 mps 743 mmHg 82%
14:00 +25°C° 1.8 mm 5 mps 743 mmHg 83%
15:00 +23°C° 1.4 mm 5 mps 743 mmHg 85%
16:00 +22°C° 1.4 mm 5 mps 744 mmHg 86%
17:00 +22°C° 1.4 mm 5 mps 744 mmHg 87%
18:00 +20°C° 0.2 mm 4 mps 744 mmHg 88%
19:00 +19°C° 0.2 mm 3 mps 744 mmHg 88%
20:00 +18°C° 0.2 mm 3 mps 744 mmHg 89%
21:00 +17°C° 0.1 mm 3 mps 744 mmHg 87%
22:00 +16°C° 0.1 mm 3 mps 745 mmHg 86%
23:00 +14°C° 0.1 mm 3 mps 745 mmHg 84%
Show more